Location: Bordes
(42.8975°N, 1.0305°E)
Time: 03:05:04
(UTC+00:00)

Daily predictions for brighter satellites

Satellite Brightness Start Highest point End
(mag) Time Altitude Azimuth Time Altitude Azimuth Time Altitude Azimuth
USA 215 4.3 02:25:38 10° NE 02:30:17 38° N 02:30:17 38° N
Cosmos 2263 Rocket 4.2 02:51:06 18° N 02:51:06 18° N 02:52:55 10° N
USA 281 3.6 02:43:39 10° SE 02:50:04 59° ENE 02:56:30 10° NNW
SL-12 R/B(2) 4.5 03:01:17 56° NW 03:01:33 56° NW 03:11:12 10° NNE
SL-16 R/B 4.0 03:07:38 24° NNW 03:07:38 24° NNW 03:09:55 10° NNW
Cosmos 44 Rocket 4.5 03:12:20 38° ESE 03:12:20 38° ESE 03:16:35 10° NE
ADEOS II 4.0 03:10:25 10° N 03:12:03 19° N 03:12:03 19° N
Aureole 1 Rocket 4.0 03:16:14 54° E 03:16:14 54° E 03:20:14 10° NNE
CZ-4C R/B 3.3 03:09:24 13° NNW 03:15:58 65° NE 03:24:37 10° SE
CZ-2C R/B 2.7 03:25:20 10° NNE 03:29:43 59° E 03:29:43 59° E
Resurs 1-4 Rocket 4.4 03:29:00 10° NNW 03:29:28 12° NNW 03:29:28 12° NNW
ATLAS 3B R/B 2.9 03:34:28 46° SSW 03:36:54 79° ESE 03:44:35 10° NE
Meteor 2-14 Rocket 4.3 03:38:36 65° SW 03:39:28 76° W 03:45:37 10° N
Envisat 3.8 03:37:03 10° N 03:40:31 39° NNW 03:40:31 39° NNW
Lacrosse 4 Rocket 1.5 03:47:57 72° NE 03:47:57 72° NE 03:51:53 10° NNE
Meteor 2-21 4.3 03:45:48 43° SSW 03:47:59 79° W 03:54:08 10° N
Meteor 1-10 Rocket 4.0 03:48:59 53° SSW 03:50:21 78° W 03:55:57 10° N
Cosmos 1680 Rocket 4.5 03:45:19 10° N 03:50:25 47° ENE 03:55:28 10° SE
Cosmos 1898 Rocket 3.4 03:51:11 61° SW 03:52:07 81° WNW 03:57:28 10° NNE
Cosmos 923 Rocket 4.3 03:47:31 10° NNW 03:52:50 67° ENE 03:58:08 10° SSE
IRS-1D 3.7 03:53:15 10° NNE 03:58:32 74° ESE 04:02:55 14° S
CZ-2D R/B 4.4 03:56:25 10° NNW 03:56:29 10° NNW 03:56:29 10° NNW
Cosmos 1844 Rocket 3.3 04:01:54 36° NW 04:01:54 36° NW 04:07:05 10° N
ATLAS 5 CENTAUR R/B 4.4 03:59:52 10° N 04:02:10 13° NE 04:04:40 10° ENE
Cosmos 2346 Rocket 4.4 03:59:35 33° SSW 04:02:27 64° W 04:08:37 10° N
Meteor 2-10 4.0 04:00:30 10° NNW 04:05:42 57° W 04:10:42 10° S
Cosmos 1937 Rocket 3.4 04:04:08 36° SSW 04:06:23 83° WNW 04:11:41 10° NNE
BlueWalker 3 1.7 04:07:18 83° SSE 04:07:19 83° SE 04:11:02 10° NE
USA 59 Rocket 2.5 04:05:44 10° SSE 04:07:25 13° ESE 04:08:58 10° E
NOSS 3-1 (A) 3.5 04:07:42 40° WNW 04:08:23 42° NW 04:13:57 10° NNE
Cosmos 1805 3.0 04:06:34 10° N 04:10:12 79° E 04:13:49 10° S
H-2A R/B 2.1 04:05:06 10° NNE 04:10:32 87° ESE 04:15:48 10° SSW
DMSP B5D2-2 4.4 04:12:09 41° W 04:12:09 41° W 04:16:46 10° NNW
USA 276 3.6 04:13:40 25° ESE 04:13:40 25° ESE 04:15:20 10° ENE
Meteor 1-11 Rocket 3.8 04:14:09 10° NNW 04:19:44 54° W 04:25:26 10° S
Cosmos 2278 Rocket 4.2 04:15:38 10° SSE 04:20:19 28° ESE 04:25:03 10° NE
CZ-4 R/B 4.2 04:17:07 10° N 04:21:44 45° WNW 04:23:15 35° WSW
Cosmos 372 Rocket 4.2 04:20:47 36° WSW 04:22:19 48° WNW 04:27:21 10° N
IRAS Rocket 4.1 04:17:28 10° N 04:22:54 65° WNW 04:27:30 14° SSW
Cosmos 1400 Rocket 4.0 04:20:53 10° SSE 04:24:28 40° E 04:28:02 10° NNE
Cosmos 1484 Rocket 3.6 04:20:59 10° NNE 04:24:37 49° E 04:28:11 10° S
PAYLOAD A 4.2 04:20:39 10° N 04:25:32 49° WNW 04:28:25 24° SW
Meteor 1-27 Rocket 3.6 04:20:59 13° SSW 04:25:48 61° WNW 04:31:22 10° N
Cosmos 1833 Rocket 3.3 04:20:56 10° NNW 04:26:30 57° ENE 04:32:00 10° SE
Cosmos 1151 Rocket 3.1 04:22:55 10° S 04:27:10 77° E 04:31:25 10° N
Meteor 2-16 Rocket 4.4 04:22:28 10° SSW 04:28:27 62° W 04:34:31 10° N
CENTAUR R/B 4.4 04:22:33 10° NNW 04:30:10 41° NE 04:38:42 10° ESE
Cosmos 546 4.5 04:29:18 41° WNW 04:30:27 70° SW 04:34:13 10° SE
BREEZE-M DEB (TANK) 3.9 04:31:50 11° S 04:33:19 17° SE 04:35:04 10° E
Cosmos 2292 Rocket 3.2 04:30:21 10° S 04:34:48 84° W 04:38:18 10° N
USA 281 3.9 04:29:26 10° SSW 04:34:51 27° WSW 04:40:20 10° NW
Thor Agena Rocket 3.5 04:30:11 10° NNE 04:35:28 80° WNW 04:40:45 10° SSW
SL-4 R/B 1.8 04:38:35 24° NW 04:40:43 76° NNE 04:44:37 10° ESE
Cosmos 1500 Rocket 3.6 04:36:43 10° NNW 04:40:56 50° W 04:45:09 10° SSW
Cosmos 1816 Rocket 4.4 04:37:07 10° SSW 04:43:21 73° W 04:49:43 10° N
Cosmos 1408 Rocket 4.1 04:42:08 10° NNW 04:46:04 33° W 04:49:57 10° SSW
Cosmos 1626 3.8 04:48:04 13° NW 04:48:04 13° NW 04:48:36 10° NNW
Cosmos 2112 Rocket 3.9 04:41:34 10° NNW 04:46:52 68° WSW 04:52:03 10° S
TSX-5 3.7 04:46:19 19° SW 04:48:52 53° WNW 04:52:10 10° NNE
Meteor 1-4 Rocket 1.5 04:49:43 10° S 04:52:06 81° ESE 04:54:33 10° NNE
JB-3 4.5 04:49:24 10° S 04:53:16 50° W 04:57:10 10° NNW
Cosmos 44 Rocket 4.2 04:51:00 20° W 04:53:32 32° NW 04:57:55 10° NNE
Cosmos 1842 4.5 04:50:32 10° SSE 04:53:55 41° E 04:57:19 10° NNE
Cosmos 494 Rocket 4.2 04:48:55 10° NNW 04:54:01 73° ENE 04:59:07 10° SSE
Cosmos 1441 Rocket 3.9 04:52:40 10° NNW 04:55:48 28° W 04:58:55 10° SSW
USA 290 2.7 04:55:21 18° SW 04:57:19 39° WNW 05:00:25 10° N
SME Rocket 4.0 04:53:26 10° N 04:58:06 52° WNW 05:04:54 10° SW
Cosmos 1634 Rocket 4.4 04:52:27 10° N 04:58:41 67° E 05:04:49 10° SSE
Cosmos 1743 Rocket 3.9 04:54:33 10° NNW 04:58:48 44° W 05:03:00 10° SSW
USA 229 DEB 3.5 04:52:55 10° SW 04:58:57 66° NW 05:05:38 10° NNE
Cosmos 1464 Rocket 4.3 04:54:08 10° NNW 04:59:58 43° W 05:05:43 10° SSW
USA 229 3.5 04:53:56 10° SW 05:00:00 66° NW 05:06:43 10° NNE
SeaSat 1 3.5 04:56:27 10° SE 05:01:08 47° ENE 05:05:51 10° NNW
Cosmos 1674 2.1 04:59:36 10° SSW 05:02:51 75° W 05:06:08 10° N
Cosmos 1939 Rocket 3.0 04:59:19 10° N 05:03:02 45° WNW 05:06:41 10° SW
CZ-4C R/B 3.7 04:57:34 10° NW 05:04:23 35° WSW 05:12:09 10° S
CZ-3 Stage 3 3.7 05:01:05 10° SW 05:04:23 21° S 05:11:39 10° SE
COSMO-SKYMED 1 2.8 05:00:18 10° SSE 05:04:36 75° ENE 05:08:58 10° N
SL-08 RB Rocket 3.6 05:00:37 10° NNE 05:05:05 88° W 05:09:33 10° SSW
CZ-2C R/B 3.9 05:04:49 10° NNW 05:07:29 15° WNW 05:08:59 13° W
BREEZE-M R/B 2.5 05:05:53 13° NW 05:07:56 46° NNE 05:10:39 10° E
Sich 1 3.9 05:04:48 10° NNW 05:08:23 26° W 05:11:57 10° SW
Cosmos 1707 3.4 05:05:21 10° S 05:08:46 53° E 05:12:13 10° NNE
Intercosmos 24 4.1 05:06:29 10° SSW 05:10:11 41° W 05:13:34 10° N
Timation 2 Rocket 4.5 05:04:46 10° WSW 05:10:18 37° NW 05:16:01 10° NNE
Cosmos 1766 3.0 05:06:50 10° NNW 05:10:28 67° W 05:14:04 10° S
Cosmos 1346 Rocket 3.2 05:07:51 10° N 05:11:39 63° ENE 05:15:23 10° SSE
H-2A R/B 2.8 05:09:44 10° NNE 05:12:33 54° E 05:15:20 10° S
Cosmos 1975 3.4 05:09:57 10° NNW 05:13:21 31° W 05:16:42 10° SSW
Tsikada Rocket 4.0 05:07:43 10° SSW 05:13:55 70° W 05:20:14 10° N
Cosmos 1125 Rocket 4.5 05:09:35 10° S 05:14:35 51° ESE 05:19:36 10° NNE
Meteor 1-18 Rocket 4.4 05:10:28 10° SSW 05:16:19 64° WNW 05:22:13 10° N
YAOGAN 11 4.2 05:12:20 10° SSE 05:16:35 81° ENE 05:20:51 10° NNW
Cosmos 1943 Rocket 3.0 05:11:51 10° S 05:17:12 55° ESE 05:22:34 10° NNE
Cosmos 1633 Rocket 3.0 05:13:40 10° N 05:18:03 90° W 05:22:24 10° S
ARGOS 3.3 05:16:03 10° N 05:21:15 51° WNW 05:26:28 10° SW
Cosmos 220 Rocket 4.0 05:19:10 10° NNW 05:23:23 57° WSW 05:27:30 10° S
KORONAS-FOTON 3.6 05:20:49 10° SSW 05:24:27 68° W 05:28:07 10° N
CBERS-1 4.2 05:20:07 10° N 05:25:03 50° WNW 05:29:58 10° SW
NOSS 2-1 (D) 2.7 05:22:23 10° SW 05:26:00 75° NW 05:29:04 10° NNE
Lacrosse 4 Rocket 3.4 05:24:12 10° WNW 05:26:21 13° NW 05:28:30 10° NNW
Cosmos 2084 3.8 05:24:46 10° NW 05:28:13 34° WSW 05:31:40 10° S
ATLAS 3B R/B 3.8 05:22:05 10° W 05:28:30 31° NW 05:35:16 10° NNE
Cosmos 1315 Rocket 4.3 05:28:11 10° SSE 05:31:55 43° E 05:35:42 10° NNE
NOSS 2-1 (E) 2.8 05:30:35 10° SW 05:34:08 65° NW 05:37:10 10° NNE
Cosmos 1328 Rocket 3.7 05:31:17 10° SSW 05:35:26 49° WNW 05:39:38 10° N
